Weather History for KSRB - June, 2013

Change the Weather History Date:

Thursday, June 13, 2013

  Actual Average (KCSV) Record (KCSV)
Temperature  
Mean Temperature 77 °F 71 °F  
Max Temperature 86 °F 81 °F 89 °F (1954)
Min Temperature 68 °F 61 °F 43 °F (1985)
Degree Days  
Heating Degree Days 0    
Month to date heating degree days  
Since 1 June heating degree days  
Since 1 July heating degree days  
Cooling Degree Days 12    
Month to date cooling degree days  
Year to date cooling degree days  
Since 1 June cooling degree days  
Growing Degree Days 27 (Base 50)    
Moisture  
Dew Point 74 °F    
Average Humidity 90    
Maximum Humidity 100    
Minimum Humidity 79    
Precipitation  
Precipitation 0.00 in 0.15 in 1.11 in (1970)
Month to date precipitation 2.04  
Year to date precipitation 26.42  
Sea Level Pressure  
Sea Level Pressure 29.88 in    
Wind  
Wind Speed 8 mph (NNW)    
Max Wind Speed 14 mph    
Max Gust Speed -    
Visibility 10 miles    
Events      
T = Trace of Precipitation, MM = Missing Value Source: NWS Daily Summary

Daily Weather History Graph

Daily Weather History Graph

Search for Another Location

Airport or City:

Trip Planner

Search our weather history database for the weather conditions in past years. The results will help you decide how hot, cold, wet, or windy it might be!

Date:

Astronomy

Jun. 13, 2013 Rise Set
Actual Time 5:24 AM CDT 8:00 PM CDT
Civil Twilight 4:54 AM CDT 8:30 PM CDT
Nautical Twilight 4:16 AM CDT 9:07 PM CDT
Astronomical Twilight 3:35 AM CDT 9:49 PM CDT
Moon 9:53 AM CDT (6/13) 11:14 PM CDT (6/13)
Length of Visible Light 15h 35m
Length of Day
14h 35m
Waxing Crescent, 22% of the Moon is Illuminated
Jun 13
Waxing Crescent
Jun 16
First Quarter
Jun 23
Full
Jun 29
Last Quarter
Jul 8
New

Hourly Weather History & Observations

Time (CDT) Temp. Heat Index Dew Point Humidity Pressure Visibility Wind Dir Wind Speed Gust Speed Precip Events Conditions
12:15 PM 86.0 °F 104.7 °F 82.4 °F 89% 29.83 in 10.0 mi West 12.7 mph - N/A   Mostly Cloudy
12:35 PM 86.0 °F 104.7 °F 82.4 °F 89% 29.82 in 10.0 mi West 8.1 mph - N/A   Scattered Clouds
12:55 PM 84.2 °F 98.3 °F 80.6 °F 89% 29.83 in 10.0 mi WNW 12.7 mph - N/A   Scattered Clouds
1:15 PM 86.0 °F 104.7 °F 82.4 °F 89% 29.82 in 9.0 mi West 13.8 mph - N/A   Scattered Clouds
1:35 PM 86.0 °F 101.9 °F 80.6 °F 84% 29.82 in 10.0 mi WNW 8.1 mph - N/A   Partly Cloudy
1:55 PM 84.2 °F 98.3 °F 80.6 °F 89% 29.83 in 9.0 mi NW 10.4 mph - N/A   Scattered Clouds
2:15 PM 78.8 °F - 78.8 °F 100% 29.85 in 10.0 mi West 8.1 mph - N/A   Mostly Cloudy
2:35 PM 80.6 °F 88.1 °F 78.8 °F 94% 29.84 in 10.0 mi Calm Calm - N/A   Scattered Clouds
2:55 PM 80.6 °F 88.1 °F 78.8 °F 94% 29.85 in 10.0 mi NNW 8.1 mph - N/A   Mostly Cloudy
3:15 PM 80.6 °F 87.1 °F 77.0 °F 89% 29.85 in 10.0 mi North 11.5 mph - N/A   Mostly Cloudy
3:35 PM 80.6 °F 86.2 °F 75.2 °F 84% 29.85 in 10.0 mi North 10.4 mph - N/A   Mostly Cloudy
3:55 PM 80.6 °F 86.2 °F 75.2 °F 84% 29.85 in 10.0 mi NNW 8.1 mph - N/A   Mostly Cloudy
4:15 PM 80.6 °F 86.2 °F 75.2 °F 84% 29.85 in 10.0 mi NNW 9.2 mph - N/A   Mostly Cloudy
4:35 PM 80.6 °F 85.4 °F 73.4 °F 79% 29.85 in 10.0 mi NNW 8.1 mph - N/A   Mostly Cloudy
4:55 PM 80.6 °F 85.4 °F 73.4 °F 79% 29.85 in 10.0 mi North 9.2 mph - N/A   Scattered Clouds
5:15 PM 78.8 °F - 73.4 °F 83% 29.86 in 10.0 mi Variable 5.8 mph - N/A   Scattered Clouds
5:35 PM 78.8 °F - 73.4 °F 83% 29.86 in 10.0 mi Variable 6.9 mph - N/A   Mostly Cloudy
5:55 PM 78.8 °F - 73.4 °F 83% 29.87 in 10.0 mi NNW 8.1 mph - N/A   Partly Cloudy
6:15 PM 78.8 °F - 73.4 °F 83% 29.87 in 10.0 mi North 8.1 mph - N/A   Clear
6:35 PM 78.8 °F - 73.4 °F 83% 29.88 in 10.0 mi Variable 5.8 mph - N/A   Scattered Clouds
6:55 PM 77.0 °F - 71.6 °F 83% 29.88 in 10.0 mi Variable 5.8 mph - N/A   Mostly Cloudy
7:15 PM 75.2 °F - 71.6 °F 89% 29.88 in 10.0 mi NNW 6.9 mph - N/A   Partly Cloudy
7:35 PM 75.2 °F - 71.6 °F 89% 29.89 in 10.0 mi North 6.9 mph - N/A   Clear
7:55 PM 73.4 °F - 71.6 °F 94% 29.89 in 10.0 mi NNW 4.6 mph - N/A   Clear
8:15 PM 71.6 °F - 69.8 °F 94% 29.89 in 10.0 mi NNW 6.9 mph - N/A   Clear
8:35 PM 71.6 °F - 69.8 °F 94% 29.91 in 10.0 mi Variable 6.9 mph - N/A   Partly Cloudy
8:55 PM 71.6 °F - 69.8 °F 94% 29.91 in 10.0 mi NNW 4.6 mph - N/A   Scattered Clouds
9:15 PM 71.6 °F - 69.8 °F 94% 29.93 in 10.0 mi NNW 3.5 mph - N/A   Scattered Clouds
9:35 PM 71.6 °F - 69.8 °F 94% 29.94 in 10.0 mi Calm Calm - N/A   Mostly Cloudy
9:55 PM 71.6 °F - 69.8 °F 94% 29.95 in 10.0 mi North 5.8 mph - N/A   Mostly Cloudy
10:15 PM 69.8 °F - 69.8 °F 100% 29.96 in 10.0 mi NNW 4.6 mph - N/A   Partly Cloudy
10:35 PM 69.8 °F - 69.8 °F 100% 29.96 in 10.0 mi Variable 3.5 mph - N/A   Clear
10:55 PM 69.8 °F - 69.8 °F 100% 29.96 in 10.0 mi NNE 3.5 mph - N/A   Clear
11:15 PM 68.0 °F - 68.0 °F 100% 29.97 in 10.0 mi Calm Calm - N/A   Clear
11:35 PM 68.0 °F - 68.0 °F 100% 29.96 in 10.0 mi Calm Calm - N/A   Clear
11:55 PM 68.0 °F - 66.2 °F 94% 29.96 in 10.0 mi NNE 3.5 mph - N/A   Partly Cloudy